sat.trackr.live / text

‹ back to catalog

STARLINK-3191

NORAD 49770 · 2021-115AY

PAYLOAD ACTIVE UNKNOWN

§ Identity

Operator
Country
US
Launch date
2021-12-02
Launch site
AFETR
Launch vehicle
Mass (kg)
RCS (m²)

Purposes: comms

External: N2YO · Heavens-Above · Gunter

§ Orbital elements

Epoch: 2026-05-25T01:04:00.554304Z

Period
95.44 min
Inclination
53.2127°
Eccentricity
0.0001087
Mean motion
15.08838086 rev/d
Perigee alt
539.0 km
Apogee alt
540.5 km
Semi-major
6,917.9 km
B*
-2.1062e-5
RAAN
156.4022°
Arg perigee
66.3491°
Mean anomaly
293.7616°
Rev number
24,832

§ Raw data

STARLINK-31911 49770U 21115AY  26145.04445086 -.00000623  00000+0 -21062-4 0  99932 49770  53.2127 156.4022 0001087  66.3491 293.7616 15.08838086248324

JSON: /api/v1/satellites/49770 · /tle

For live sub-satellite position, see the globe view (requires WebGL).

§ Visibility from observer

Set your observer location to see the next 7 days of passes ≥ 10°. The values pass through the URL so the page stays shareable.

No JS? Fill the form by hand. The geolocation button needs JavaScript.